Wind_Speed
18 17 15 14 13 12 12 15 16 16 16 15 13 12 11 10 11 10 8 8 9 10 12 13 14 13 12 12 12 12 13 13 12 11 10 9 8 7 5 4 3 3 3 3 2 2 2 2 2
19 19 17 16 14 13 14 16 17 17 16 14 13 12 11 11 11 10 9 9 9 11 12 14 13 13 12 12 12 13 14 14 13 12 11 10 9 8 7 6 5 5 4 4 4 4 3 3 3
21 20 20 18 16 14 16 19 18 18 16 15 13 12 12 11 11 11 11 11 11 11 12 13 13 13 13 13 13 13 14 14 14 13 13 12 11 10 9 7 7 6 6 5 5 5 4 4 4
21 21 21 19 17 18 20 21 20 18 17 15 14 13 12 12 12 12 12 12 12 12 13 13 14 13 13 13 13 14 15 15 15 15 14 13 12 11 10 9 8 8 7 7 6 6 5 5 4
21 21 21 20 18 20 22 24 23 20 18 16 14 13 13 12 13 13 13 13 13 12 13 13 14 14 14 14 15 15 15 16 17 16 16 15 14 13 12 10 9 9 8 8 8 7 6 6 5
21 21 21 20 20 22 23 24 24 22 20 18 16 15 14 13 13 13 12 13 13 12 13 14 15 15 15 15 16 16 16 16 17 17 16 15 15 14 13 12 11 10 10 9 9 8 7 7 6
20 21 21 20 21 22 25 25 25 24 22 20 18 16 16 15 15 14 13 12 13 12 12 14 14 15 16 17 17 17 17 17 17 17 17 17 16 15 14 13 12 12 11 10 10 9 9 8 8
20 21 21 21 22 24 25 26 26 25 24 22 19 18 18 16 16 15 14 12 13 13 14 15 15 16 17 17 18 18 18 18 17 17 18 18 17 17 16 15 14 13 12 12 11 11 10 10 9
20 20 20 22 23 24 25 26 26 26 24 23 21 20 19 18 17 16 15 15 15 15 15 16 16 17 16 16 18 18 18 18 18 18 18 18 18 18 17 16 15 15 14 13 13 12 12 12 11
19 19 20 22 22 24 25 26 26 26 25 25 24 22 21 20 18 17 17 17 17 16 17 17 16 17 16 16 18 19 19 20 19 19 19 19 19 19 18 17 17 16 16 15 14 14 14 13 13
18 19 20 21 22 23 24 25 26 26 26 26 26 25 22 21 20 19 18 19 19 18 18 18 19 19 18 17 18 19 20 20 20 20 20 20 21 20 19 19 19 18 18 17 16 16 16 15 15
18 19 20 21 22 22 24 25 25 26 27 28 27 26 24 23 21 20 20 21 21 21 21 20 19 20 19 19 20 20 20 20 21 21 22 22 22 22 21 21 20 20 19 18 18 17 17 17 16
19 19 20 21 22 23 24 25 26 27 28 28 28 27 26 25 24 23 23 23 23 23 22 22 20 20 21 21 21 21 21 21 22 23 24 24 23 23 22 22 22 22 21 20 20 19 19 18 18
19 19 20 21 22 22 23 24 25 26 27 27 28 28 27 27 26 25 25 24 23 24 24 24 24 23 23 23 23 23 23 23 23 24 25 26 25 24 24 23 23 24 23 22 22 21 21 20 20
18 19 20 21 21 22 22 24 25 25 26 26 27 28 29 29 29 28 27 26 26 26 26 25 26 26 24 25 25 25 24 25 25 25 26 27 27 27 26 25 25 25 24 23 24 24 23 23 22
18 18 19 21 21 22 21 22 26 24 25 26 26 27 29 30 30 30 30 29 28 28 27 27 26 26 27 26 27 26 26 27 27 27 27 28 28 28 28 27 26 26 26 26 26 25 25 24 24
17 17 19 22 22 22 22 23 25 23 24 25 26 27 28 30 31 32 32 31 30 29 29 28 27 26 27 28 27 27 27 27 28 27 28 29 30 30 30 28 27 27 27 27 27 27 27 26 26
17 18 19 21 23 22 22 23 23 23 23 24 25 27 28 29 30 32 32 32 32 31 30 29 28 27 28 28 28 28 28 28 28 27 27 29 30 30 30 29 29 29 29 29 29 29 29 28 28
18 18 18 21 22 22 22 23 23 22 22 23 24 25 27 28 30 31 32 33 33 32 31 31 30 29 29 28 27 28 27 27 28 27 27 28 29 30 30 31 30 29 29 29 30 29 29 29 29
17 17 18 20 21 21 21 21 21 22 22 22 23 24 25 27 30 31 31 32 33 33 32 31 30 30 30 30 29 29 28 29 29 29 28 28 28 29 30 32 31 29 28 28 29 29 30 30 30
16 16 17 19 19 19 19 19 19 20 20 21 21 22 23 25 27 29 30 31 32 32 32 32 30 30 30 30 30 29 29 29 27 28 28 29 30 28 28 30 30 30 30 30 30 31 31 31 31
15 17 17 18 17 16 17 16 17 18 19 20 20 21 22 23 24 26 28 30 31 31 31 31 30 31 30 29 29 28 27 27 26 27 28 27 29 30 29 29 30 31 31 31 30 30 30 30 30
16 17 17 17 17 16 17 16 16 17 17 18 19 19 21 22 22 24 26 27 28 29 30 30 31 30 29 28 28 27 26 25 26 26 27 28 29 30 30 30 31 30 30 30 31 30 31 31 31
16 16 16 15 15 15 15 16 15 16 15 16 17 18 20 22 22 23 24 25 26 28 29 29 30 30 29 28 26 26 27 26 26 27 28 28 28 30 31 31 30 30 30 31 31 31 31 32 32
15 13 12 12 12 13 15 16 15 15 15 16 16 17 18 19 21 23 23 24 25 27 28 28 28 29 28 28 27 27 26 27 26 27 28 28 28 28 28 28 29 29 29 29 29 30 31 32 33
14 12 11 12 12 13 15 15 15 14 14 15 16 17 18 19 20 23 24 25 25 26 27 27 28 28 27 27 27 26 26 25 26 26 26 27 28 28 26 26 27 28 28 27 28 29 31 32 33
12 11 11 12 13 13 14 14 14 13 13 13 15 16 17 19 20 21 23 24 25 26 27 27 27 27 27 27 27 27 26 25 25 25 24 25 27 28 26 26 27 28 28 29 29 30 32 32 34
11 10 11 10 11 12 13 13 12 13 13 14 15 16 17 18 20 22 22 23 24 25 26 27 27 26 26 27 27 27 26 26 26 24 25 26 27 27 28 27 28 29 30 31 31 32 33 34 35
10 10 11 11 12 12 12 12 13 13 13 14 15 16 17 18 18 19 21 21 22 23 24 24 25 25 25 25 25 25 25 25 25 25 26 27 27 27 29 30 31 31 32 33 33 34 34 35 36
10 10 11 12 12 12 13 13 12 12 13 14 15 16 17 17 16 17 18 20 21 22 24 25 25 25 25 25 25 25 25 24 24 24 25 27 28 29 30 31 32 33 33 34 34 35 35 36 37
Wind_Direction
260 260 259 258 258 260 259 261 262 265 265 263 262 264 263 259 257 253 243 231 227 228 220 212 203 199 202 206 212 217 220 220 219 216 215 215 216 219 225 234 249 258 264 272 275 277 276 275 278
260 259 258 256 255 255 260 260 260 262 265 265 263 262 258 259 255 248 241 231 232 229 220 216 211 209 209 212 216 220 223 222 222 221 219 220 220 223 230 236 243 247 251 258 261 262 261 262 262
260 258 257 255 252 249 252 259 259 262 264 265 264 263 260 258 253 247 246 236 237 232 224 221 219 217 215 217 219 223 225 225 224 223 222 224 224 225 228 234 239 242 245 250 255 254 255 255 255
259 259 258 255 251 249 250 256 258 261 263 264 264 264 264 261 257 253 251 241 238 237 229 226 224 221 221 222 223 225 227 229 228 227 227 227 226 226 227 230 235 240 243 248 250 250 250 250 253
258 259 259 257 252 250 251 254 257 259 260 261 262 264 263 262 262 262 257 248 243 241 233 230 230 228 229 230 229 230 231 231 231 231 230 228 227 227 227 229 233 238 241 244 246 248 248 249 252
257 258 259 258 254 251 251 253 255 256 257 258 259 260 262 262 264 261 256 249 244 244 236 236 235 235 236 236 236 235 234 234 234 233 232 231 230 229 228 229 231 235 239 241 243 245 247 248 248
257 257 258 258 255 253 251 252 254 255 255 255 256 255 257 260 261 258 254 251 247 246 242 235 234 239 241 240 238 237 236 235 235 234 234 233 231 231 231 232 233 234 237 239 241 243 245 245 245
258 258 259 257 255 254 254 253 254 254 255 255 254 252 253 257 258 256 254 250 251 250 241 237 234 240 245 244 240 239 237 237 237 236 236 234 233 234 233 234 234 235 236 238 239 242 244 245 243
260 259 259 257 256 256 256 255 255 254 255 256 255 252 252 254 255 256 256 256 255 249 243 238 237 240 247 248 243 241 240 239 238 237 236 235 234 235 236 237 236 235 236 237 238 240 242 243 243
263 261 259 258 257 257 258 257 256 255 254 255 254 252 250 251 252 256 259 259 255 249 247 244 243 243 247 252 247 242 241 241 239 237 235 236 236 235 236 237 237 236 237 238 238 238 240 241 244
264 263 262 261 259 259 259 259 258 255 253 252 252 251 249 248 248 251 254 256 253 249 248 247 247 246 248 250 248 245 243 243 242 238 238 234 236 237 237 238 238 237 238 239 239 238 239 242 244
265 265 264 264 262 260 259 259 259 256 253 252 252 251 249 247 245 246 249 251 251 249 248 250 249 247 247 250 248 248 247 246 244 242 238 235 238 239 240 239 240 239 240 240 240 240 240 242 245
267 267 267 266 265 262 261 259 258 257 255 253 251 250 248 245 243 244 246 248 252 252 251 249 250 251 250 251 251 250 249 248 244 243 241 238 240 241 240 240 240 241 241 240 240 239 240 243 246
270 270 270 270 269 266 263 260 258 258 256 253 250 247 245 243 242 242 243 247 249 250 254 253 254 257 253 251 253 252 250 250 250 244 241 237 238 238 238 240 241 242 241 240 240 241 241 243 246
274 275 276 274 273 270 267 263 260 258 256 253 249 245 243 242 241 241 242 244 247 249 252 254 255 258 256 255 254 255 251 252 252 246 244 240 239 238 238 239 241 241 240 242 241 241 242 244 247
279 281 281 278 275 273 269 265 263 261 257 254 250 245 243 242 240 241 242 243 245 247 249 254 258 259 260 261 258 259 257 255 253 248 245 242 240 239 238 238 241 240 242 243 243 245 245 247 250
283 282 279 280 277 274 270 264 265 262 258 255 251 246 244 243 241 242 243 243 244 246 249 253 258 260 260 262 261 262 257 256 254 249 247 243 240 239 236 237 241 241 243 244 245 245 246 249 252
281 281 280 278 278 276 272 268 267 264 259 255 252 248 245 244 242 242 243 244 245 246 249 253 257 260 262 262 261 261 258 256 254 251 250 245 242 239 237 239 241 242 245 247 247 248 249 250 254
281 281 279 278 278 277 273 270 268 266 262 258 254 251 247 245 243 242 241 243 244 246 248 251 255 260 262 263 263 260 260 258 255 252 249 247 243 241 240 240 243 243 245 247 247 248 250 253 257
284 283 281 278 277 275 273 271 270 267 262 259 257 253 249 246 245 243 242 242 243 245 247 251 254 259 263 264 262 262 261 263 258 252 249 248 247 245 243 243 243 245 246 248 250 251 253 258 260
286 282 280 282 282 279 276 275 271 267 262 260 257 253 249 246 244 242 240 241 243 244 246 250 254 257 261 263 263 260 260 263 260 255 253 251 249 244 246 246 246 245 246 248 252 254 257 260 259
287 286 285 285 283 281 278 276 271 266 262 260 258 253 247 245 243 240 240 240 241 242 244 248 252 256 259 263 266 263 260 260 259 257 255 255 250 249 248 246 245 244 246 250 252 254 257 259 259
286 287 286 284 281 277 280 278 274 268 262 258 256 253 247 244 244 242 240 240 241 243 245 248 252 256 260 262 264 264 262 263 259 256 254 253 252 250 248 246 245 245 247 250 252 255 257 257 258
292 293 294 290 285 281 278 275 276 270 261 257 256 254 248 244 243 242 242 243 243 245 247 250 252 255 257 259 261 264 261 263 260 255 254 253 252 250 247 245 245 246 248 251 254 257 259 259 261
295 298 299 295 285 280 279 274 273 270 262 257 255 252 249 247 243 242 243 243 244 245 248 251 254 254 256 257 259 261 260 259 257 256 255 250 248 246 243 246 244 245 247 251 254 257 260 261 263
290 291 283 279 278 278 282 281 277 273 266 260 255 253 252 250 248 243 243 245 244 245 247 250 253 254 255 255 258 258 257 258 257 257 256 250 247 246 246 245 245 247 250 253 256 260 262 264 265
291 288 281 280 282 284 284 285 284 273 266 263 257 256 257 253 251 246 245 245 245 245 247 249 250 252 254 255 257 259 258 257 256 255 253 249 248 246 245 244 245 246 251 255 260 263 265 267 268
288 283 287 287 283 282 286 289 283 280 266 260 259 258 254 254 250 248 246 247 248 248 249 250 250 251 251 253 256 256 256 256 256 256 252 250 252 248 244 246 247 250 254 258 262 265 266 268 271
294 289 288 284 275 281 287 287 288 284 273 263 264 261 260 259 256 252 250 248 249 250 250 249 248 250 252 253 256 256 255 256 256 253 254 253 251 252 252 254 254 256 258 260 263 265 267 270 272
291 289 287 286 290 289 287 287 285 282 276 273 271 265 264 260 257 255 253 253 253 251 250 251 251 251 252 254 257 256 255 252 253 253 253 252 251 253 253 254 255 257 260 262 266 268 270 273 274
Height
5884 5885 5886 5888 5890 5891 5891 5890 5889 5889 5889 5889 5890 5891 5892 5892 5893 5895 5892 5891 5891 5891 5892 5893 5893 5894 5894 5895 5896 5897 5898 5899 5899 5899 5900 5900 5901 5901 5902 5902 5903 5903 5903 5903 5903 5902 5902 5902 5902
5880 5881 5883 5885 5887 5888 5889 5887 5886 5886 5886 5887 5888 5889 5889 5890 5890 5890 5889 5889 5889 5889 5890 5891 5891 5892 5893 5893 5894 5895 5896 5896 5897 5898 5898 5899 5899 5899 5900 5901 5901 5901 5901 5901 5901 5901 5901 5901 5901
5876 5877 5879 5882 5883 5885 5885 5883 5883 5882 5884 5885 5886 5886 5887 5888 5888 5887 5887 5887 5887 5887 5887 5888 5889 5890 5891 5892 5892 5893 5894 5895 5895 5895 5896 5897 5897 5897 5898 5899 5899 5899 5900 5900 5900 5900 5900 5900 5900
5872 5874 5876 5878 5880 5880 5880 5879 5879 5880 5881 5882 5883 5884 5885 5886 5885 5885 5885 5885 5885 5885 5885 5886 5887 5888 5889 5890 5890 5891 5892 5892 5893 5893 5894 5894 5895 5895 5896 5897 5897 5898 5898 5898 5898 5898 5898 5899 5899
5868 5870 5872 5873 5875 5875 5875 5875 5875 5877 5878 5879 5881 5882 5882 5883 5883 5883 5883 5883 5883 5883 5883 5884 5885 5886 5887 5887 5888 5889 5889 5890 5890 5891 5891 5892 5892 5893 5894 5895 5895 5896 5896 5896 5897 5897 5897 5897 5897
5864 5866 5867 5868 5870 5870 5870 5870 5871 5873 5875 5876 5878 5879 5880 5880 5880 5880 5880 5880 5880 5880 5881 5881 5882 5883 5884 5885 5885 5886 5886 5887 5887 5888 5889 5889 5890 5891 5892 5892 5893 5894 5894 5895 5895 5895 5895 5896 5896
5861 5862 5863 5864 5865 5865 5865 5866 5867 5869 5871 5873 5874 5875 5876 5877 5877 5878 5878 5878 5878 5878 5878 5878 5879 5880 5881 5882 5882 5883 5883 5884 5884 5885 5886 5887 5888 5889 5890 5890 5891 5891 5892 5893 5893 5893 5893 5894 5894
5856 5858 5858 5859 5860 5860 5860 5861 5862 5864 5866 5868 5870 5872 5873 5874 5874 5875 5875 5875 5875 5875 5875 5875 5876 5877 5878 5878 5879 5879 5880 5881 5881 5882 5883 5884 5884 5885 5886 5887 5888 5889 5890 5890 5891 5891 5892 5892 5893
5851 5854 5854 5854 5855 5855 5855 5856 5858 5860 5862 5864 5866 5868 5869 5870 5871 5871 5872 5872 5872 5872 5872 5872 5873 5874 5874 5875 5875 5876 5877 5877 5877 5878 5879 5880 5880 5882 5883 5884 5885 5886 5887 5888 5888 5889 5889 5890 5890
5847 5849 5849 5849 5849 5850 5850 5851 5853 5855 5857 5859 5860 5862 5864 5865 5867 5868 5868 5868 5868 5868 5869 5869 5869 5870 5871 5871 5871 5872 5872 5873 5873 5874 5874 5876 5877 5878 5879 5880 5882 5883 5884 5885 5885 5886 5886 5887 5888
5843 5843 5843 5844 5844 5845 5845 5846 5847 5850 5852 5853 5854 5857 5859 5861 5863 5864 5864 5865 5865 5865 5865 5865 5866 5866 5867 5867 5867 5868 5868 5869 5870 5871 5871 5872 5873 5874 5875 5877 5878 5879 5880 5881 5882 5883 5884 5884 5885
5838 5838 5838 5838 5839 5840 5840 5841 5842 5843 5845 5847 5849 5851 5853 5856 5858 5859 5860 5861 5861 5861 5861 5862 5862 5863 5863 5863 5864 5864 5864 5864 5865 5866 5867 5867 5868 5869 5871 5873 5874 5875 5877 5878 5879 5880 5881 5882 5882
5834 5833 5833 5833 5834 5834 5835 5835 5836 5837 5838 5840 5843 5845 5847 5850 5852 5854 5855 5856 5857 5857 5857 5858 5858 5858 5858 5859 5859 5859 5859 5859 5861 5862 5862 5863 5864 5865 5867 5868 5870 5871 5873 5874 5875 5876 5877 5878 5879
5829 5829 5828 5828 5829 5829 5830 5830 5831 5831 5832 5834 5836 5839 5841 5844 5846 5848 5850 5851 5852 5852 5853 5853 5854 5854 5854 5854 5855 5855 5854 5855 5855 5855 5855 5857 5858 5860 5862 5863 5865 5867 5868 5869 5871 5872 5873 5874 5875
5824 5825 5824 5824 5824 5824 5825 5825 5825 5825 5826 5828 5830 5832 5834 5837 5839 5841 5843 5845 5846 5847 5848 5848 5849 5849 5849 5849 5849 5849 5849 5850 5850 5851 5851 5852 5854 5855 5857 5859 5860 5862 5863 5865 5866 5867 5869 5870 5870
5820 5821 5820 5819 5819 5819 5821 5821 5818 5820 5821 5822 5824 5826 5828 5830 5833 5835 5837 5839 5840 5841 5843 5843 5844 5844 5844 5844 5844 5844 5844 5845 5844 5845 5846 5848 5849 5850 5852 5854 5856 5857 5858 5860 5862 5863 5864 5865 5865
5816 5817 5816 5814 5813 5813 5814 5814 5813 5813 5815 5816 5817 5819 5821 5823 5826 5828 5830 5832 5834 5835 5837 5838 5838 5839 5839 5838 5838 5839 5838 5839 5839 5839 5839 5841 5843 5845 5846 5848 5850 5851 5853 5855 5856 5857 5858 5859 5860
5812 5812 5811 5809 5807 5807 5807 5807 5807 5808 5809 5810 5811 5812 5815 5817 5819 5821 5823 5825 5827 5829 5830 5832 5833 5833 5833 5833 5833 5833 5833 5833 5833 5834 5834 5835 5837 5839 5841 5842 5844 5845 5847 5849 5850 5851 5853 5854 5854
5807 5806 5806 5804 5802 5802 5802 5801 5802 5802 5803 5803 5804 5806 5808 5810 5811 5813 5816 5818 5820 5822 5824 5826 5827 5827 5827 5826 5826 5826 5826 5827 5828 5828 5829 5830 5832 5833 5835 5836 5838 5840 5841 5843 5844 5845 5846 5848 5848
5802 5801 5800 5798 5797 5797 5796 5796 5796 5796 5797 5798 5798 5800 5801 5802 5804 5806 5809 5811 5813 5816 5817 5819 5820 5821 5820 5820 5820 5819 5820 5820 5821 5822 5823 5825 5826 5827 5829 5830 5832 5833 5835 5836 5838 5839 5841 5842 5842
5797 5797 5795 5794 5792 5791 5792 5792 5792 5791 5791 5792 5793 5793 5794 5796 5797 5799 5802 5804 5807 5809 5811 5813 5814 5814 5814 5814 5813 5813 5814 5814 5814 5816 5818 5819 5820 5820 5822 5824 5826 5827 5829 5830 5832 5833 5834 5835 5836
5793 5791 5790 5789 5788 5789 5788 5788 5787 5786 5786 5786 5787 5788 5788 5790 5791 5793 5795 5798 5800 5802 5804 5806 5807 5808 5808 5807 5807 5807 5808 5808 5808 5809 5811 5813 5813 5814 5815 5817 5818 5820 5822 5824 5825 5826 5827 5828 5829
5788 5786 5785 5784 5784 5784 5784 5784 5784 5781 5781 5781 5781 5782 5783 5784 5786 5787 5789 5791 5794 5796 5798 5799 5800 5801 5801 5801 5801 5801 5802 5802 5802 5803 5804 5806 5806 5808 5809 5810 5812 5814 5815 5817 5818 5819 5820 5821 5821
5783 5782 5781 5780 5780 5781 5780 5780 5780 5777 5777 5777 5777 5777 5778 5779 5781 5782 5784 5786 5788 5790 5791 5792 5794 5795 5795 5795 5795 5795 5796 5796 5796 5797 5798 5798 5799 5800 5802 5803 5805 5807 5809 5810 5811 5812 5813 5813 5813
5779 5780 5780 5779 5779 5779 5776 5775 5775 5772 5772 5772 5772 5773 5774 5775 5776 5777 5778 5780 5781 5783 5784 5786 5787 5788 5788 5789 5789 5789 5789 5789 5790 5791 5791 5792 5793 5794 5796 5797 5799 5801 5802 5803 5804 5804 5805 5805 5805
5776 5776 5777 5778 5777 5776 5772 5771 5770 5768 5767 5767 5768 5768 5769 5770 5771 5771 5772 5774 5775 5777 5778 5779 5780 5781 5782 5783 5783 5783 5783 5784 5784 5784 5785 5786 5787 5788 5790 5791 5793 5794 5795 5796 5797 5797 5798 5798 5797
5773 5773 5773 5772 5771 5770 5769 5767 5765 5763 5763 5763 5763 5763 5764 5764 5765 5765 5766 5768 5769 5770 5772 5773 5774 5775 5775 5776 5777 5777 5778 5778 5778 5778 5779 5780 5781 5782 5783 5785 5786 5787 5788 5789 5790 5790 5790 5790 5789
5770 5769 5768 5768 5767 5767 5766 5764 5763 5760 5759 5759 5759 5758 5759 5759 5759 5760 5761 5762 5763 5764 5765 5766 5767 5768 5768 5769 5770 5771 5772 5772 5772 5772 5773 5774 5775 5776 5776 5778 5779 5780 5781 5782 5782 5782 5782 5781 5780
5767 5766 5765 5764 5764 5763 5763 5764 5758 5756 5755 5754 5754 5754 5754 5754 5754 5754 5755 5756 5756 5757 5758 5759 5760 5761 5762 5762 5763 5764 5765 5766 5766 5766 5766 5766 5767 5768 5769 5770 5772 5773 5773 5774 5774 5774 5773 5772 5771
5764 5763 5762 5762 5760 5759 5758 5760 5755 5752 5751 5750 5750 5749 5749 5749 5749 5749 5750 5750 5750 5751 5752 5753 5754 5755 5756 5756 5757 5757 5758 5759 5759 5759 5759 5760 5760 5761 5762 5763 5764 5765 5765 5765 5765 5764 5764 5763 5762